Terminal Aerodrome Forecast
Issued by NWS Dodge City, KS

Home | Current Version | Previous Version | Text Only | Print | Product List | Glossary Off
Versions: 1 2 3 4 5 6 7 8 9 10 11 12 13 14 15 16 17 18 19 20 21 22 23 24 25 26 27 28 29 30 31 32 33 34 35 36 37 38 39

000
FTUS43 KDDC 270520
TAFDDC
TAF
KDDC 270520Z 2706/2806 18008KT P6SM SCT250
     FM271600 20016G22KT P6SM OVC250
     FM280000 19012KT P6SM OVC250 PROB30 2800/2803 P6SM TS BKN050CB=

USA.gov is the U.S. government's official web portal to all federal, state and local government web resources and services.